SMOG-1 (47964 NORAD) Tracking and Keplerian Element Data

This shows tracking and keplerian element data for the satellite.

Feedback or suggestion? Click here.




ElementValue
Catalog47964
NameSMOG-1
Epoch Orbit9048
Epoch Day324.72409164
Epoch Year2022
RAAN222.7506
Inclination97.5155
Eccentricity0.0016656
Argument of Perigee326.4179
Mean Anonmoly33.5995
Mean Motion15.12537936
Decay Rate8.404E-05
L11 47964U 21022AJ 22324.72409164 .00008404 00000+0 48419-3 0 9997
L22 47964 97.5155 222.7506 0016656 326.4179 33.5995 15.12537936 90481



Live tracking and technical data element details for SMOG-1 (NORAD 47964). SMOG-1 can be tracked NOW for your location showing map with azimuth and elevation plus other details from your city location.







IsCatalogInMostPopularTable: catalog: 47964, numindb: 92
Update: records affected: 1



GetName: 47964 SMOG-1

Hit Count: updated at: Mon, 28 Nov 2022 04:36:43 GMT